Location: Pinon Hills
(34.4429°N, 117.6403°W)
Time: 02:29:15
(UTC-07:00)

Uosat F - Visible Passes

Search period start: 29 April 2017 00:00
Search period end: 09 May 2017 00:00
Orbit: 750 x 762 km, 98.8° (Epoch: 27 April)

Date Brightness Start Highest point End Pass type
(mag) Time Alt. Az. Time Alt. Az. Time Alt. Az.
30 Apr 14.5 20:24:01 10° W 20:24:05 10° W 20:24:08 10° W visible
03 May 13.8 20:00:59 10° SW 20:04:14 17° W 20:07:29 10° NW visible
05 May 14.5 20:23:40 10° W 20:24:14 10° W 20:24:48 10° W visible
08 May 13.8 20:01:06 10° SW 20:04:23 17° W 20:07:41 10° NW visible
